FW6661 Weather Reports


time (UTC)temp
C
wind
direction
speed
KPH
gust
KPH
rain 1hr
cm
rain 24hr
cm
rain mn
cm
humidity
%
barometer
mb
20260510043703 13 0 0.0 0.0 0.00 0.00 0.00 100 987.9
20260510042705 13 0 0.0 0.0 0.00 0.00 0.00 100 987.9
20260510041703 13 0 0.0 0.0 0.00 0.00 0.00 100 988.0
20260510040705 13 0 0.0 0.0 0.00 0.00 0.00 100 987.9
20260510035704 13 0 0.0 0.0 0.00 0.00 0.00 100 987.8
20260510034704 14 270 0.0 0.0 0.00 0.00 0.00 100 987.9
20260510033705 13 0 0.0 0.0 0.00 0.00 0.00 100 987.9
20260510032705 14 0 0.0 0.0 0.00 0.00 0.00 100 987.8
20260510031703 14 0 0.0 0.0 0.00 0.00 0.00 100 987.6
20260510030705 14 0 0.0 0.0 0.00 0.00 0.00 100 987.5
20260510025704 15 0 0.0 0.0 0.00 0.00 0.00 100 987.5
20260510024702 15 0 0.0 0.0 0.00 0.00 0.00 100 987.4
20260510023705 15 0 0.0 0.0 0.00 0.00 0.00 100 987.3
20260510022702 15 0 0.0 0.0 0.00 0.00 0.00 100 987.2
20260510020703 16 0 0.0 0.0 0.00 0.00 0.00 100 986.8
20260510015705 16 0 0.0 0.0 0.00 0.00 0.00 100 986.6
20260510014705 17 0 0.0 0.0 0.00 0.00 0.00 100 986.5
20260510013703 17 0 0.0 0.0 0.00 0.00 0.00 100 986.3
20260510011709 17 0 0.0 0.0 0.00 0.00 0.00 100 986.0
20260510010705 18 0 0.0 0.0 0.00 0.00 0.00 100 985.9
20260510005703 18 0 0.0 0.0 0.00 0.00 0.00 100 985.6
20260510004715 18 0 0.0 0.0 0.00 0.00 0.00 100 985.4
20260510003704 18 45 0.0 0.0 0.00 0.00 0.00 100 985.3
20260510002706 19 0 0.0 0.0 0.00 0.00 0.00 100 985.2
20260510001705 19 0 0.0 0.0 0.00 0.00 0.00 100 985.1
20260510000710 20 0 0.0 0.0 0.00 0.00 0.00 100 985.0
20260509235727 20 0 0.0 0.0 0.00 0.00 0.00 100 984.9
20260509234705 20 0 0.0 0.0 0.00 0.00 0.00 100 984.8
20260509233704 21 0 0.0 0.0 0.00 0.00 0.00 100 984.8
20260509232704 21 0 0.0 0.0 0.00 0.00 0.00 100 984.7
20260509231704 21 0 0.0 0.0 0.00 0.00 0.00 100 984.6
20260509230704 21 0 0.0 0.0 0.00 0.00 0.00 100 984.6
20260509225706 21 45 0.0 0.0 0.00 0.00 0.00 100 984.6
20260509224704 22 90 0.0 0.0 0.00 0.00 0.00 100 984.6
20260509223705 22 180 0.0 0.0 0.00 0.00 0.00 100 984.7
20260509222707 22 0 0.0 0.0 0.00 0.00 0.00 96 984.6
20260509221704 22 42 1.6 1.6 0.00 0.00 0.00 94 984.6
20260509220704 22 0 0.0 0.0 0.00 0.00 0.00 100 984.6
20260509215713 22 135 1.6 1.6 0.00 0.00 0.00 90 984.7
20260509214701 23 225 0.0 0.0 0.00 0.00 0.00 95 984.6
20260509213704 23 135 0.0 0.0 0.00 0.00 0.00 100 984.5
20260509212704 23 135 0.0 0.0 0.00 0.00 0.00 91 984.5
20260509211702 22 0 0.0 0.0 0.00 0.00 0.00 97 984.4
20260509210704 23 0 0.0 0.0 0.00 0.00 0.00 94 984.4
20260509205704 23 176 1.6 1.6 0.00 0.00 0.00 81 984.4
20260509204704 24 170 1.6 1.6 0.00 0.00 0.00 73 984.1
20260509203704 24 175 1.6 1.6 0.00 0.00 0.00 72 984.0
20260509202704 25 122 0.0 1.6 0.00 0.00 0.00 64 984.0
20260509201706 24 135 1.6 1.6 0.00 0.00 0.00 74 984.1
20260509200705 23 135 1.6 1.6 0.00 0.00 0.00 79 984.2
20260509195705 25 117 1.6 1.6 0.00 0.00 0.00 67 984.2
20260509194705 24 336 1.6 3.2 0.00 0.00 0.00 78 984.4
20260509193704 25 180 1.6 1.6 0.00 0.00 0.00 75 984.5
20260509192704 25 52 1.6 1.6 0.00 0.00 0.00 70 984.5
20260509191703 25 180 1.6 1.6 0.00 0.00 0.00 72 984.6
20260509190705 24 17 0.0 1.6 0.00 0.00 0.00 77 984.8
20260509184704 23 45 3.2 3.2 0.00 0.00 0.00 73 985.0
20260509183705 24 135 0.0 1.6 0.00 0.00 0.00 76 985.1
20260509182707 23 146 0.0 1.6 0.00 0.00 0.00 84 985.3
20260509180704 22 129 1.6 1.6 0.00 0.00 0.00 93 985.9
20260509175704 22 62 1.6 1.6 0.00 0.00 0.00 91 986.0
20260509173704 22 54 1.6 3.2 0.00 0.00 0.00 93 986.2
20260509172704 21 135 1.6 1.6 0.00 0.00 0.00 100 986.7
20260509171705 20 64 1.6 1.6 0.00 0.00 0.00 100 986.7
20260509170705 20 180 0.0 0.0 0.00 0.00 0.00 100 986.8
20260509165703 20 90 0.0 0.0 0.00 0.00 0.00 100 986.6
20260509163703 19 135 0.0 0.0 0.00 0.00 0.00 100 986.8
20260509161703 20 50 1.6 1.6 0.00 0.00 0.00 100 986.6
20260509160702 19 90 0.0 0.0 0.00 0.00 0.00 100 986.8
20260509155704 18 45 1.6 1.6 0.00 0.00 0.00 100 986.7
20260509154704 18 135 0.0 0.0 0.00 0.00 0.00 100 987.0
20260509153703 18 189 1.6 1.6 0.00 0.00 0.00 100 987.0
20260509152709 18 135 0.0 1.6 0.00 0.00 0.00 100 987.0
20260509151703 19 165 1.6 1.6 0.00 0.00 0.00 100 987.0
20260509150704 18 90 0.0 0.0 0.00 0.00 0.00 100 987.3
20260509145704 17 90 0.0 0.0 0.00 0.00 0.00 100 987.3
20260509143705 17 45 3.2 3.2 0.00 0.00 0.00 100 987.2
20260509142704 16 135 0.0 0.0 0.00 0.00 0.00 100 987.2
20260509141704 16 72 0.0 0.0 0.00 0.00 0.00 100 987.3
20260509140704 16 117 0.0 0.0 0.00 0.00 0.00 100 987.4
20260509134710 15 0 0.0 0.0 0.00 0.00 0.00 100 987.8
20260509133703 15 0 0.0 0.0 0.00 0.00 0.00 100 987.7
20260509132704 15 90 0.0 0.0 0.00 0.00 0.00 100 987.8
20260509131705 15 135 0.0 0.0 0.00 0.00 0.00 100 988.0
20260509130702 14 0 0.0 0.0 0.00 0.00 0.00 100 988.0
20260509125705 14 0 0.0 0.0 0.00 0.00 0.00 100 988.1
20260509123706 14 0 0.0 0.0 0.00 0.00 0.00 100 988.1
20260509122705 13 0 0.0 0.0 0.00 0.00 0.00 100 988.2
20260509121705 13 0 0.0 0.0 0.00 0.00 0.00 100 988.2
20260509115704 13 0 0.0 0.0 0.00 0.00 0.00 100 988.1
20260509114703 13 0 0.0 0.0 0.00 0.00 0.00 100 988.1
20260509113703 12 90 0.0 0.0 0.00 0.00 0.00 100 988.1
20260509112705 12 0 0.0 0.0 0.00 0.00 0.00 100 988.1
20260509111711 12 0 0.0 0.0 0.00 0.00 0.00 100 988.2
20260509110703 11 0 0.0 0.0 0.00 0.00 0.00 100 988.1
20260509105702 11 0 0.0 0.0 0.00 0.00 0.00 100 988.0
20260509104704 11 0 0.0 0.0 0.00 0.00 0.00 100 987.9
20260509103704 11 0 0.0 0.0 0.00 0.00 0.00 100 988.1
20260509102727 11 0 0.0 0.0 0.00 0.00 0.00 100 988.1
20260509101705 11 51 0.0 1.6 0.00 0.00 0.00 100 988.0
20260509100705 11 0 0.0 0.0 0.00 0.00 0.00 100 988.0
20260509095708 11 0 0.0 0.0 0.00 0.00 0.00 100 987.9
20260509094703 11 0 0.0 0.0 0.00 0.00 0.00 100 987.9
20260509093705 11 0 0.0 0.0 0.00 0.00 0.00 100 988.0
20260509090703 11 135 0.0 0.0 0.00 0.00 0.00 100 988.1
20260509085705 11 0 0.0 0.0 0.00 0.00 0.00 100 988.1
20260509084704 11 0 0.0 0.0 0.00 0.00 0.00 100 988.2
20260509083704 11 0 0.0 0.0 0.00 0.00 0.00 100 988.2
20260509082708 11 0 0.0 0.0 0.00 0.00 0.00 100 988.2
20260509080703 11 0 0.0 0.0 0.00 0.00 0.00 100 988.3
20260509075702 11 0 0.0 0.0 0.00 0.00 0.00 100 988.4
20260509074709 11 0 0.0 0.0 0.00 0.00 0.00 100 988.4
20260509073708 11 90 0.0 0.0 0.00 0.00 0.00 100 988.4
20260509071704 11 0 0.0 0.0 0.00 0.00 0.00 100 988.6
20260509070704 11 0 0.0 0.0 0.00 0.00 0.00 100 988.5
20260509065703 11 0 0.0 0.0 0.00 0.00 0.00 100 988.9
20260509064703 11 0 0.0 0.0 0.00 0.00 0.00 100 989.0
20260509063704 11 0 0.0 0.0 0.00 0.00 0.00 100 988.9
20260509061720 11 0 0.0 0.0 0.00 0.00 0.00 100 989.0
20260509060718 12 135 0.0 0.0 0.00 0.00 0.00 100 989.1
20260509055703 11 0 0.0 0.0 0.00 0.00 0.00 100 989.3
20260509054705 11 0 0.0 0.0 0.00 0.00 0.00 100 989.3
20260509053702 12 0 0.0 0.0 0.00 0.00 0.00 100 989.3
20260509052705 12 0 0.0 0.0 0.00 0.00 0.00 100 989.1
20260509051703 12 0 0.0 0.0 0.00 0.00 0.00 100 989.1
20260509050702 13 0 0.0 0.0 0.00 0.00 0.00 100 989.1
20260509045703 13 0 0.0 0.0 0.00 0.00 0.00 100 989.0
20260509044703 13 0 0.0 0.0 0.00 0.00 0.00 100 989.0